{"data":{"norad_id":66705,"epoch":"2026-09-19T22:31:38.663616Z","epoch_age_seconds":66615,"freshness":"FRESH","line1":"1 66705U 25276AR  26262.93864194  .00004794  00000+0  21378-3 0  9995","line2":"2 66705  97.4095 335.2242 0001842  54.8375 305.3033 15.21874539 44840","mean_motion":15.21874539,"eccentricity":0.0001842,"inclination_deg":97.4095,"raan_deg":335.2242,"arg_perigee_deg":54.8375,"mean_anomaly_deg":305.3033,"bstar":0.00021378,"rev_number":4484,"period_min":94.620151865225,"perigee_km":498.91966284149,"apogee_km":501.45363727417,"semimajor_km":6878.3236500578,"source":"CELESTRAK","updated_at":"2026-09-20T09:00:34.747881Z"}}